Regional Weather Roundup
Issued by NWS Sterling, VA

Home | Current Version | Previous Version | Graphics & Text | Print | Product List | Glossary On
Versions: 1 2 3 4 5 6 7 8 9 10 11 12 13 14 15 16 17 18 19 20 21 22 23 24 25 26 27 28
000
ASUS41 KLWX 251111
RWRLWX

REGIONAL WEATHER ROUNDUP
NATIONAL WEATHER SERVICE BALTIMORE MD/WASHINGTON DC
700 AM EDT THU MAY 25 2017

Note: "FAIR" indicates few or no clouds below 12,000 feet
with no significant weather and/or obstructions to visibility.
 TC=TEMPERATURE CELSIUS

 * =Non NWS site. Station does not report precipitation (e.g. rain,
    snow, etc.), thunder, or fog.

DCZ001-MDZ009-015-VAZ040>042-051-053>054-251200-
WASHINGTON METRO

CITY           SKY/WX    TMP DP  RH WIND       PRES   REMARKS
WASHINGTON NAT HVY RAIN  59  58  96 E6        29.50S FOG
DULLES         LGT RAIN  57  55  93 W10       29.52R FOG
ANDREWS AFB    DRIZZLE   57  57 100 SE9       29.48S
FT BELVOIR     LGT RAIN  59  57  94 CALM      29.48S FOG
QUANTICO       LGT RAIN  60  60 100 NE3       29.48F FOG
COLLEGE PARK*  CLOUDY    56  55  95 E5        29.50S
LEESBURG*      RAIN      57  57 100 W7        29.54R
MANASSAS*      LGT RAIN  57  55  94 NW8       29.51R FOG
GAITHERSBURG*  LGT RAIN  55  54  96 E8        29.50S

$$

MDZ006>007-011-014-251200-
BALTIMORE METRO

CITY           SKY/WX    TMP DP  RH WIND       PRES   REMARKS
BWI AIRPORT    LGT RAIN  57  57 100 E17       29.51S FOG
MD SCIENCE CTR   N/A     58  57  97 MISG      29.53F
MARTIN STATE   RAIN      57  57 100 E9        29.55F FOG
ANNAPOLIS      LGT RAIN  60  60 100 MISG      29.51F FOG
FORT MEADE*    CLOUDY    55  54  94 E8G16     29.53S

$$

MDZ012-015-019>023-251200-
MARYLAND EASTERN SHORE

CITY           SKY/WX    TMP DP  RH WIND       PRES   REMARKS
OCEAN CITY     CLOUDY    61  60  97 E8        29.56F
SALISBURY      LGT RAIN  62  62 100 E9        29.53F FOG
BAY BRIDGE AP* LGT RAIN  57  57 100 E10G22    29.50F FOG
CAMBRIDGE*     CLOUDY    59  59 100 E9G16     29.50F FOG
EASTON*        LGT RAIN  59  57  94 E9G17     29.55F FOG

$$

MDZ017>025-251200-
SOUTHERN MARYLAND

CITY           SKY/WX    TMP DP  RH WIND       PRES   REMARKS
PATUXENT RIVER CLOUDY    66  66 100 SE15G22   29.47F
ST INIGOES     CLOUDY    68  67  96 SE10G18   29.47S
LEONARDTOWN*   CLOUDY    63  61  94 CALM      29.49F

$$

MDZ003>005-251200-
NORTH CENTRAL MARYLAND

CITY           SKY/WX    TMP DP  RH WIND       PRES   REMARKS
FREDERICK*     HVY RAIN  55  55 100 N5        29.55R
HAGERSTOWN APT LGT RAIN  56  55  97 NE3       29.52R FOG
WESTMINSTER*   DRIZZLE   55  55 100 E10G21    29.50F

$$

MDZ501>502-251200-
WESTERN MARYLAND

CITY           SKY/WX    TMP DP  RH WIND       PRES   REMARKS
OAKLAND*       CLOUDY    46  46 100 SE14      29.51F FOG
CUMBERLAND*    CLOUDY    55  55 100 CALM      29.57S

$$

VAZ025>031-251200-
SHENANDOAH VALLEY

CITY           SKY/WX    TMP DP  RH WIND       PRES   REMARKS
WINCHESTER*    LGT RAIN  54  52  94 NE5       29.51F
FRONT ROYAL*   CLOUDY    54  54 100 CALM      29.50F
LURAY*         CLOUDY    55  55 100 NE5       29.49F
NEW MARKET*    CLOUDY    55  54  96 NE8       29.47F
STAUNTON*      CLOUDY    56  55  96 CALM      29.52R
WAYNESBORO*    CLOUDY    55  55 100 CALM      29.50R

$$

WVZ021-048>050-054>055-251200-
EASTERN WEST VIRGINIA PANHANDLE

CITY           SKY/WX    TMP DP  RH WIND       PRES   REMARKS
MARTINSBURG    RAIN      55  54  96 W6        29.54R FOG
PETERSBURG*    CLOUDY    56  55  96 NW3       29.48F

$$

VAZ036>039-050-251200-
CENTRAL FOOTHILLS

CITY           SKY/WX    TMP DP  RH WIND       PRES   REMARKS
CHARLOTTESVILL CLOUDY    59  57  93 CALM      29.45F
CULPEPER*      CLOUDY    57  57  99 NE5       29.48F
ORANGE*        PTSUNNY   55  54  94 CALM      29.47F
GORDONSVILLE*  CLOUDY    56  56 100 NE8       29.45F
WARRENTON*     LGT RAIN  58  55  88 N5        29.49F

$$

VAZ055>057-251200-
NORTH AND CENTRAL PIEDMONT

CITY           SKY/WX    TMP DP  RH WIND       PRES   REMARKS
FREDERICKSBRG* DRIZZLE   60  60 100 NW6       29.48R
STAFFORD*      RAIN      58  58 100 NW5       29.53R

$$

NCZ024-NYZ072-PAZ021-071-VAZ022-071-251200-
OTHER REGIONAL OBSERVATIONS

CITY           SKY/WX    TMP DP  RH WIND       PRES   REMARKS
NEW YORK CITY  LGT RAIN  56  55  97 E10G17    29.73F FOG
PHILADELPHIA   LGT RAIN  55  53  93 E17       29.61F FOG
PITTSBURGH     LGT RAIN  56  56 100 E7        29.47S
ROANOKE        CLOUDY    59  58  96 S3        29.54R
RICHMOND       CLOUDY    60  59  96 S5        29.47F
RALEIGH        PTCLDY    61  60  97 S5        29.55R

$$

ANZ530>537-251200-
MARINE OBSERVATIONS

STATION/POSITION TIME  TEMP    WIND        PRES
                       AIR SEA DIR/SP/G
                 (UTC) (F)     (DEG/KT/KT) (MB)
THOMAS PT LIGHT  1100   59 64  100/ 25/ 28   N/A
BALT KEY BRIDGE  1048   57      90/ 17/ 19  999.3F
COVE POINT       1048   62     140/ 16/ 20  998.7F
LEWISETTA        1048   69 66  170/ 12/ 14  997.7F
SOLOMONS ISLAND  1042   66 66  120/ 14/ 17   N/A
PINEY POINT      1042          160/ 14/ 16   N/A

$$





USA.gov is the U.S. government's official web portal to all federal, state and local government web resources and services.